Terminal Aerodrome Forecast
Issued by NWS Pittsburgh, PA

Current Version | Previous Version | Graphics & Text | Print | Product List | Glossary On
Versions: 1 2 3 4 5 6 7 8 9 10 11 12 13 14 15 16 17 18 19 20 21 22 23 24 25 26 27
000
FTUS41 KPBZ 181502 AAA
TAFPIT
TAF AMD
KPIT 181502Z 1815/1918 26004KT P6SM SCT030
     FM190000 16005KT P6SM VCSH OVC050
     FM190300 19007KT P6SM -SHRA BKN020
     FM190700 26009KT P6SM -SHRA BKN015
     FM191200 28012G20KT 2SM -SHSN OVC012=

USA.gov is the U.S. government's official web portal to all federal, state and local government web resources and services.